Location: Fontevrault
(47.1823°N, 0.0493°E)
Time: 14:33:55
(UTC+00:00)

SL-16 R/B - Pass Details

Date: 16 June 2021
Orbit: 843 x 845 km, 71.0° (Epoch: 30 July)

Event Time Altitude Azimuth Distance (km) Brightness Sun altitude
Rises 21:39:43 0° 223° (SW) 3,389 5.2 -12.6°
Reaches altitude 10° 21:42:14 10° 229° (SW) 2,459 4.5 -12.8°
Maximum altitude 21:47:41 49° 304° (WNW) 1,087 3.2 -13.3°
Drops below altitude 10° 21:53:11 10° 19° (NNE) 2,475 5.2 -13.8°
Sets 21:55:44 0° 25° (NNE) 3,414 5.9 -14.0°
